Tracking 35280 objects as of 6-Sep-2026
HD Live streaming from Space Station
objects crossing your sky now

STARLINK-30774

Track STARLINK-30774 now!
10-day predictions
STARLINK-30774 is classified as:


NORAD ID: 58625
Int'l Code: 2023-203H
Launch date: December 23, 2023
Source: United States (US)
Launch site: AIR FORCE EASTERN TEST RANGE (AFETR)
Your satellite tracking list
Your tracking list is empty




NASA's NSSDC Master Catalog

Two Line Element Set (TLE):
1 58625U 23203H   26249.36396751  .00001408  00000-0  60693-4 0  9990
2 58625  43.0009 126.7013 0000985 279.2170  80.8570 15.27570752151190
Source of the keplerian elements: AFSPC